COSMOS 2008

Satellite information

Favourite Embed

Satellite Type and Status

PAYLOADIN ORBIT

Key statistics

Satellite COSMOS 2008 at a glance.

Uptime

13413

Days in orbit

Revolutions

≈ 12.6

Per day

Orbit

LEO

Low Earth Orbit

Inclination

74.0

Latest

Satellite identification and parameters

Extended collection of information and parameters for COSMOS 2008.

Object identification

Identified? True

Debris? False

Object name: COSMOS 2008

International designator: 1989-025A

Object number (NORAD): 19902

Object ID (CCSDS): 19902

Country: COMMONWEALTH OF INDEPENDENT STATES (CIS)

Current information (Y/N): Y

RCS size: MEDIUM

Orbital parameters

Period: 114.48 minutes

Inclination: 74.0108 deg

SMA: 7809.899 km

Apoapsis: 1471.002 km

Periapsis: 1392.526 km

RAAN: 290.5964 deg

Eccentricy: 0.00502416

Argument of periapsis: 193.0136 deg

Mean anomaly: 278.2618 deg

Mean motion: 12.57866783 rev/day

Mean motion (dot): -0.00000002 rev/day2

B* drag term: 0.000087009754 1/REarth

Two-line elements (TLE)

Creation date: Dec. 12, 2025, 10:14 a.m.

Reference frame: TEME

Reference center: EARTH

Epoch: Dec. 12, 2025, 6:15 a.m. UTC

TLE line 0: 0 COSMOS 2008

TLE line 1: 1 19902U 89025A 25346.26056495 -.00000002 00000-0 87010-4 0 9995

TLE line 2: 2 19902 74.0108 290.5964 0050242 193.0136 278.2618 12.57866783686045

Live tracking on map

Real-time ground track for satellite COSMOS 2008.

In-orbit conjunctions

There are no conjunctions computed for COSMOS 2008, at the moment. Check back to stay up to date, as we update our databases every day.

Go to all conjunctions

Associated space launch

Military communications satellites

COSMOS 2008 was lifted into orbit during the mission ‘Kosmos-3M | Strela-1M 337-344’, on board a Kosmos-3M space rocket.

The launch took place on March 24, 1989, 1:38 p.m. from 132/2.

For more information about the launch, click the button.

Launch to space Kosmos-3M | Strela-1M 337-344
Kosmos-3M | Strela-1M 337-344

Agency: N/A

Status: Launch Successful

Launch date: March 24, 1989, 1:38 p.m. UTC

Rocket: Kosmos-3M

Launch pad: 132/2

Location: Plesetsk Cosmodrome, Russian Federation

...

Latest news about this satellite

There are no fresh news available about this satellite. Check back as we update our databases every day.


Newsletter sign-up

Weekly statistics, charts and insights to help you stay on top of the space industry.